[Iaude] MPEC B75: 2024 BW1 [a=1.25,e=0.24,i=4.3,H=25.3]

mpec at marsden.cfa.harvard.edu mpec at marsden.cfa.harvard.edu
Sat Jan 20 19:29:05 EST 2024


M.P.E.C. 2024-B75                              Issued 2024 January 21, 00:27 UT

     The Minor Planet Electronic Circulars contain information on unusual
         minor planets, routine data on comets and natural satellites,
         and occasional editorial announcements.  They are published
    on behalf of Division F of the International Astronomical Union by the
          Minor Planet Center, Smithsonian Astrophysical Observatory,
                          Cambridge, MA 02138, U.S.A.
			  
             Prepared using the Tamkin Foundation Computer Network

                              MPC at CFA.HARVARD.EDU
            URL https://www.minorplanetcenter.net/    ISSN 1523-6714

                                    2024 BW1                                    


Observations:
     K24B01W*1C2024 01 19.43421014 05 56.191+22 53 09.24         18.66GVEB075703
     K24B01W 1C2024 01 19.43646014 05 50.917+22 52 39.25         18.90GVEB075703
     K24B01W 1C2024 01 19.43871014 05 45.647+22 52 10.09               VEB075703
     K24B01W 1C2024 01 19.44096314 05 40.301+22 51 40.54         18.11GVEB075703
     K24B01W KB2024 01 19.46830 14 04 27.029+22 45 01.19         18.0 GXEB075H36
     K24B01W KB2024 01 19.47170 14 04 18.838+22 44 13.92         18.0 GXEB075H36
     K24B01W KB2024 01 19.47510 14 04 10.714+22 43 27.16         17.9 GXEB075H36
     K24B01W KC2024 01 19.49420814 03 33.070+22 39 43.85         19.06GVEB075I52
     K24B01W KC2024 01 19.49472314 03 31.835+22 39 36.86         19.13GVEB075I52
     K24B01W KC2024 01 19.49524214 03 30.589+22 39 29.88         19.10GVEB075I52
     K24B01W KC2024 01 19.49575314 03 29.380+22 39 22.93         19.07GVEB075I52
     K24B01W hC2024 01 20.02726613 44 43.361+20 29 20.65         18.3 GVEB075J95
     K24B01W hC2024 01 20.02863513 44 40.500+20 29 03.08               VEB075J95
     K24B01W KB2024 01 20.04119913 44 17.33 +20 26 56.2          18.8 GXEB075I93
     K24B01W KB2024 01 20.04395613 44 11.50 +20 26 18.9          19.4 GXEB075I93
     K24B01W 1C2024 01 20.04447 13 44 05.73 +20 25 52.8          20.2 VXEB075033
     K24B01W 1C2024 01 20.04470 13 44 05.20 +20 25 49.3          20.4 VXEB075033
     K24B01W 1C2024 01 20.04495 13 44 04.66 +20 25 46.6          20.5 VXEB075033
     K24B01W 1C2024 01 20.04536 13 44 03.81 +20 25 41.3          20.6 VXEB075033
     K24B01W KB2024 01 20.04663413 44 05.87 +20 25 42.9          19.7 GXEB075I93
     K24B01W KC2024 01 20.04665513 44 02.86 +20 26 04.3          18.3 GVEB075L01
     K24B01W KC2024 01 20.04813713 43 59.70 +20 25 44.3          18.4 GVEB075L01
     K24B01W KC2024 01 20.04961813 43 56.54 +20 25 24.2          18.5 GVEB075L01
     K24B01W KC2024 01 20.05110013 43 53.37 +20 25 03.7          18.6 GVEB075L01
     K24B01W KC2024 01 20.05258213 43 50.18 +20 24 43.6          18.6 GVEB075L01
     K24B01W 1C2024 01 20.18445 13 39 06.00 +19 53 23.0          19.7 VXEB075033
     K24B01W 1C2024 01 20.18468 13 39 05.51 +19 53 19.9          19.6 VXEB075033
     K24B01W 1C2024 01 20.18491 13 39 05.00 +19 53 16.5          19.6 VXEB075033
     K24B01W 1C2024 01 20.18527 13 39 04.23 +19 53 11.4          19.2 VXEB075033
     K24B01W KB2024 01 20.99248 13 14 07.35 +16 43 13.7                XEB075M45
     K24B01W KB2024 01 20.99796 13 13 57.28 +16 42 00.1          19.1 GXEB075M45
     K24B01W KB2024 01 21.00338 13 13 47.33 +16 40 48.1          19.2 GXEB075M45

Observer details:
033 Karl Schwarzschild Observatory, Tautenburg.  Observers S. Melnikov, C.
    Hogner, F. Ludwig, M. Hartmann, B. Stecklum.  Measurer B. Stecklum.
    1.34-m f/3 Schmidt + CCD.
703 Catalina Sky Survey.  Observers V. F. Carvajal, J. K. Hogan.  Measurers T.
    Beuden, V. F. Carvajal, D. Fay, J. B. Fazekas, D. C. Fuls, A. R. Gibbs, A.
    D. Grauer, H. Groeller, J. K. Hogan, R. A. Kowalski, S. M. Larson, G. J.
    Leonard, D. Rankin, R. L. Seaman, F. C. Shelly, K. W. Wierzchos.  0.68-m
    Schmidt + 10K CCD.
H36 Sandlot Observatory, Scranton.  Observer G. Hug.  0.56-m f/4.8 reflector +
    CMO.
I52 Steward Observatory, Mt. Lemmon Station.  Observer R. A. Kowalski.
    Measurers E. C. Beshore, D. Fay, J. B. Fazekas, D. C. Fuls, A. R. Gibbs,
    A. D. Grauer, H. Groeller, J. K. Hogan, R. A. Kowalski, S. M. Larson, G.
    J. Leonard, D. Rankin, R. L. Seaman, F. C. Shelly, K. W. Wierzchos.  1.0-m
    prime focus + CCD.
I93 St Pardon de Conques.  Observer F. Losse.  0.40-m f/3.7 reflector + CMO.
J95 Great Shefford.  Observer P. Birtwhistle.  0.41-m f/6.3 Schmidt-Cassegrain
    + CCD.
L01 Visnjan Observatory, Tican.  Observer K. Korlevic.  1.0-m f/2.9 reflector
    + CCD.
M45 Starhopper Observatory, Sfantu Gheorghe.  Observer F. Ursache.  0.41-m
    f/7.5 reflector + CMO.

Orbital elements:
2024 BW1                                                 Earth MOID = 0.0085 AU
Epoch 2023 Sept. 13.0 TT = JDT 2460200.5                MPC                     
M 292.58657              (2000.0)            P               Q                  
n   0.70729325     Peri.  134.03654     +0.15911408     -0.98541993             
a   1.2475837      Node   306.71336     +0.88294281     +0.16934047             
e   0.2435393      Incl.    4.31047     +0.44169526     +0.01647342             
P   1.39           H   25.32          G   0.15           U   7                  
Residuals in seconds of arc
240119 703  1.7-  0.6-    240120 J95  0.8-  0.8-    240120 L01  0.4+  0.1+
240119 703  0.8-  0.8-    240120 J95  1.0-  0.2+    240120 L01  0.4+  0.1-
240119 703  0.2+  0.1-    240120 I93  0.6+  0.2-    240120 L01  0.1+  0.0
240119 703  0.2+  0.2+    240120 I93  0.0   0.2-    240120 033  0.3-  0.1-
240119 H36  0.3+  0.4+    240120 033  0.4+  0.3-    240120 033  0.3-  0.1+
240119 H36  0.1-  0.1-    240120 033  0.2-  0.6-    240120 033  0.5-  0.0
240119 H36  0.6+  0.0     240120 033  0.3-  0.1+    240120 033  0.5-  0.0
240119 I52  0.1-  0.1-    240120 033  0.0   0.4+    240120 M45  0.1+  0.5+
240119 I52  0.0   0.0     240120 I93  0.1-  0.0     240120 M45  0.1-  0.2-
240119 I52  0.1-  0.1+    240120 L01  0.3+  0.2-    240121 M45  0.1-  0.0
240119 I52  0.2+  0.1+    240120 L01  0.3+  0.0

Ephemeris:
2024 BW1                 a,e,i = 1.25, 0.24, 4                   q = 0.9437
Date    TT    R. A. (2000) Decl.     Delta      r    Elong.  Phase     V
2023 12 22    20 46 08.4 +18 35 58   0.07999 0.9447    58.7   117.1    24.3
...
2024 01 06    19 55 58.3 +26 20 10   0.03853 0.9593    50.5   127.7    23.6
...
2024 01 14    17 42 30.2 +32 50 52   0.02040 0.9739    61.1   117.9    21.5
...
2024 01 20    13 45 19.3 +20 41 47   0.01756 0.9875   101.4    77.6    19.2
2024 01 21    13 13 36.7 +16 46 11   0.01865 0.9900   108.3    70.6    19.1
2024 01 22    12 46 58.4 +13 06 07   0.02009 0.9926   114.5    64.5    19.1
...
2024 01 28    11 17 17.5 -00 37 36   0.03299 1.0089   136.6    42.2    19.6
...
2024 02 05    10 31 48.0 -06 51 17   0.05459 1.0332   149.5    29.0    20.3
...
2024 02 20    09 58 59.5 -08 47 50   0.1019  1.0847   159.7    18.4    21.5

A. U. Tomatic                (C) Copyright 2024 MPC           M.P.E.C. 2024-B75





More information about the Iaude mailing list